Simultaneous Nadir Overpasses (SNOs) Predictions

Prediction of SNOs between GOES-17 and NOAA-19 Satellite Orbit:

Table of predicted SNOs for the next 14.0 days since TLE Epoch: 4/20/2024
Index Date Time (GOES-17) GOES-17 Lat,Lon NOAA-19 Lat,Lon Distance(km) Time Diff (sec)
1 04/20/2024 03:58:41 -0.00,-104.69 0.58,-102.20 284.26 9
2 04/22/2024 16:16:56 0.01,-104.70 0.50,-106.82 242.19 80
3 04/23/2024 16:07:22 0.01,-104.71 -0.17,-103.85 97.86 80
4 04/24/2024 15:55:07 0.01,-104.71 -0.86,-100.87 437.85 80
5 04/26/2024 04:27:06 -0.02,-104.70 -0.91,-108.55 438.90 80
6 04/27/2024 04:14:52 -0.01,-104.70 -0.21,-105.57 99.38 80
7 04/28/2024 03:59:57 0.00,-104.70 0.49,-102.60 239.90 80
8 04/30/2024 16:19:22 -0.02,-104.70 0.59,-107.22 288.37 80
9 05/01/2024 16:09:48 -0.02,-104.70 -0.12,-104.25 51.23 80
10 05/02/2024 15:57:33 -0.02,-104.69 -0.83,-101.27 390.94 80
